Regional Weather Roundup
Issued by NWS Charleston, SC

Current Version | Previous Version | Text Only | Print | Product List | Glossary Off
Versions: 1 2 3 4 5 6 7 8 9 10 11 12 13 14 15 16 17 18 19 20 21 22 23 24 25 26 27 28 29 30 31 32 33 34 35 36 37 38 39 40 41 42 43 44 45 46 47 48 49 50

000
ASUS42 KCHS 221227
RWRCHS

Regional Weather Roundup
National Weather Service Charleston SC
700 AM EST MON JAN 22 2018

NOTE: "fair" indicates few or no clouds below 12,000 feet with no
significant weather and/or obstructions to visibility.

Not all stations are quality controlled. Use data with caution,
especially dewpoint observations.

SCZ027-030-031-034>040-042>050-221300-
...Southeast South Carolina...

CITY           SKY/WX    TMP DP  RH WIND       PRES   REMARKS
N Charleston   MOCLDY    43  41  93 NE3       30.19S FOG
6HR MIN TEMP:  40; 6HR MAX TEMP:  44;

Waterfront Prk NOT AVBL
Mount Pleasant FAIR      39  39 100 CALM      30.20R FOG
Johns Island   FAIR      43  41  93 CALM      30.20R FOG
Pinopolis        N/A     43  43 100 CALM      30.12S
Moncks Corner  FAIR      37  36  93 CALM      30.20R
Summerville    FAIR      37  36  93 CALM      30.21R
Beaufort MCAS  FAIR      44  43  96 CALM      30.18R
6HR MIN TEMP:  39; 6HR MAX TEMP:  45;

Beaufort Arpt  FAIR      45  43  93 NE6       30.18R FOG
Hilton Head Is CLEAR     45  43  93 NW3       30.18S
Walterboro     FAIR      37  36  93 CALM      30.19S
Allendale      FAIR      41  39  93 CALM      30.16F

...Southern Midlands and Pee Dee...

CITY           SKY/WX    TMP DP  RH WIND       PRES   REMARKS
Georgetown     FAIR      36  36 100 CALM      30.21R
Kingstree      FAIR      34  32  93 CALM      30.20R
Orangeburg     FAIR      38  36  92 CALM      30.18R
6HR MIN TEMP:  38; 6HR MAX TEMP:  42;

Barnwell         N/A     41  39  93 CALM      30.17S
Aiken          FAIR      37  37 100 NE5       30.19R WCI  34
Manning        FAIR      36  34  93 MISG      30.20R
Columbia       FAIR      38  37  97 CALM      30.18S
6HR MIN TEMP:  38; 6HR MAX TEMP:  43;

Sumter         FAIR      38  36  92 CALM      30.17R
6HR MIN TEMP:  36; 6HR MAX TEMP:  41;

Florence       FAIR      36  35  96 CALM      30.21R
6HR MIN TEMP:  36; 6HR MAX TEMP:  43;

Myrtle Beach   FAIR      40  37  89 CALM      30.21S
N Myrtle Beach FAIR      37  36  96 NE5       30.19F WCI  33
6HR MIN TEMP:  36; 6HR MAX TEMP:  39;


$$

GAZ063-065-086>088-099>101-113>116-118-119-134>141-150-221300-
...Southeast Georgia...

CITY           SKY/WX    TMP DP  RH WIND       PRES   REMARKS
Savannah Arpt  MOCLDY    43  41  93 N3        30.18R
6HR MIN TEMP:  42; 6HR MAX TEMP:  45;

Hunter AAF     FAIR      46  43  87 CALM      30.15R
6HR MIN TEMP:  44; 6HR MAX TEMP:  46;

Fort Stewart   FAIR      42  39  90 CALM      30.14S
6HR MIN TEMP:  41; 6HR MAX TEMP:  42;

Statesboro     MOCLDY    43  39  88 CALM      30.16S
Sylvania       PTSUNNY   42  42  97 CALM      30.17S
Claxton        FAIR      42  40  95 CALM      30.16S

...CSRA, Central and far Southeast Georgia...

CITY           SKY/WX    TMP DP  RH WIND       PRES   REMARKS
Thomson        FAIR      38  37  96 CALM      30.22R
Augusta-Bush   FAIR      37  36  96 CALM      30.15F
6HR MIN TEMP:  36; 6HR MAX TEMP:  41;

Augusta-Daniel FAIR      48  40  73 CALM      30.15F
Swainsboro     FAIR      46  41  81 E3        30.15F HAZE
Vidalia        FAIR      45  41  87 CALM      30.15S
Eastman        PTSUNNY   42  35  77 CALM      30.17R
Hazlehurst     FAIR      54  46  76 SE3       30.13S
Alma           CLOUDY    46  41  82 CALM      30.14S
6HR MIN TEMP:  42; 6HR MAX TEMP:  46;

Waycross       FAIR      43  39  88 CALM      30.14S
Jesup          FAIR      43  39  87 CALM      30.16S
Baxley         MOCLDY    45  45 100 CALM      30.14S
Brunswick      FAIR      43  41  93 CALM      30.17R
Saint Simons   FAIR      55  54  96 E3        30.15S
6HR MIN TEMP:  49; 6HR MAX TEMP:  56;


$$

SCZ027-028-034-036>038-045-046-048>050-GAZ119-141-221300-
...Lake and Supplemental Coastal Observations...

STATION/POSITION TIME  TEMP    WIND        PRES    WAVE   SWELL
                       AIR SEA DIR/SP/G            HT/PER HT/PER/DIR
                 (UTC) (F)     (DEG/KT/KT) (MB)    (FT/S) (FT/S/D)
Winyah Bay       1145   40        CALM     1022.0F
Lake Murray      1120   44        CALM     1021.0S
ACE Basin NERRS  1145   43        CALM     1022.0S
Fort Pulaski     1200   48 46  100/  7/  8 1021.9
Sapelo Island    1200   51      70/  4     1021.0

$$

ANZ835-935-AMZ111-154-330-350-352-354-370-450-454-472-221300-
...C-MAN and Buoy Observations...

STATION/POSITION TIME  TEMP    WIND        PRES    WAVE   SWELL
                       AIR SEA DIR/SP/G            HT/PER HT/PER/DIR
                 (UTC) (F)     (DEG/KT/KT) (MB)    (FT/S) (FT/S/D)
Buoy 41004       1210   67 70  120/  2/  4 1021.7
Buoy 41008       1150   55 50   90/  6/  6 1021.0F   1/11   2/120/11
Folly Beach CMAN 1200   48     360/  5/  6 1022.7R
Capers Nearshore 1108   46 50   50/  6/  8 1022.0R
Fripp Nearshore  1208   46 47   60/  6/  8 1021.0F


STATION/POSITION TIME  TEMP    WIND        PRES    WAVE   SWELL
                       AIR SEA DIR/SP/G            HT/PER HT/PER/DIR
                 (UTC) (F)     (DEG/KT/KT) (MB)    (FT/S) (FT/S/D)
5E St. Marys GA  1200      49                N/A     2/11
Frying Pan Buoy  1210   63 67   40/  6/  8 1022.5
Buoy 41025       1210   62 73  280/  2/  4 1023.9
Cape Lookout NC  1200          100/  2/  2 1023.6R
Buoy 41002       1150   67 70   90/  6/  8 1023.8R   2/10   2/100/10
Buoy 41010       NOT AVBL
St Augustine FL  1200   53 53  350/  4/  4 1021.1R


$$




USA.gov is the U.S. government's official web portal to all federal, state and local government web resources and services.